Overview Statistics Trail Chart Weather Telemetry Raw packets
 

This is the latest recevied weather packets stored in our database for station/object OE3CJB-13. If no packets are shown the sender has not sent any weather packets the latest 10 day(s).

<< 5 6 7 8 9 10 11 >>
Time Temp. Humidity Pressure Rain* Wind** Luminosity Snow
1788560165 19.44° C 60% 1187.5 hPa 0 mm - - -
1788559267 19.44° C 59% 1187.5 hPa 0 mm - - -
1788558365 20° C 58% 1187.5 hPa 0 mm - - -
1788557422 20° C 56% 1188.4 hPa 0 mm - - -
1788556558 20.56° C 57% 1188.3 hPa 0 mm - - -
1788555650 20.56° C 56% 1187.5 hPa 0 mm - - -
1788554734 20.56° C 54% 1187.5 hPa 0 mm - - -
1788553822 21.11° C 52% 1187.5 hPa 0 mm - - -
1788552959 21.11° C 52% 1187.5 hPa 0 mm - - -
1788552064 21.11° C 51% 1187.4 hPa 0 mm - - -
1788551134 21.67° C 49% 1187.3 hPa 0 mm - - -
1788550223 22.22° C 46% 1187.4 hPa 0 mm - - -
1788549359 22.78° C 45% 1187.4 hPa 0 mm - - -
1788548448 23.33° C 42% 1187.1 hPa 0 mm - - -
1788547565 23.33° C 40% 1187 hPa 0 mm - - -
1788546622 24.44° C 37% 1186.9 hPa 0 mm - - -
1788545759 25.56° C 34% 1184.5 hPa 0 mm - - -
1788544848 26.11° C 30% 1185.4 hPa 0 mm - - -
1788543934 27.78° C 26% 1186 hPa 0 mm - - -
1788543022 28.33° C 20% 1184.5 hPa 0 mm - - -
1788542159 29.44° C 17% 1184.4 hPa 0 mm - - -
1788541249 30° C 16% 1183.9 hPa 0 mm - - -
1788540334 30.56° C 14% 1184 hPa 0 mm - - -
1788539422 31.11° C 14% 1182.7 hPa 0 mm - - -
1788538567 31.11° C 13% 1182 hPa 0 mm - - -

* Rain latest hour (hover to see other rain measurements)
** Current wind speed in m/s (hover to see current wind gust speed)